sat.trackr.live / text

‹ back to catalog

ONEWEB-0010

NORAD 44058 · 2019-010B

PAYLOAD ACTIVE UNKNOWN

§ Identity

Operator
Country
UK
Launch date
2019-02-27
Launch site
FRGUI
Launch vehicle
Mass (kg)
RCS (m²)

Purposes: comms

External: N2YO · Heavens-Above · Gunter

§ Orbital elements

Epoch: 2026-09-15T20:48:18.667872Z

Period
109.37 min
Inclination
87.9148°
Eccentricity
0.0001916
Mean motion
13.16593177 rev/d
Perigee alt
1,196.3 km
Apogee alt
1,199.2 km
Semi-major
7,575.9 km
B*
1.8664e-4
RAAN
210.7767°
Arg perigee
69.8134°
Mean anomaly
290.3202°
Rev number
36,354

§ Raw data

ONEWEB-00101 44058U 19010B   26258.86688273  .00000084  00000+0  18664-3 0  99922 44058  87.9148 210.7767 0001916  69.8134 290.3202 13.16593177363540

JSON: /api/v1/satellites/44058 · /tle

For live sub-satellite position, see the globe view (requires WebGL).

§ Visibility from observer

Set your observer location to see the next 7 days of passes ≥ 10°. The values pass through the URL so the page stays shareable.

No JS? Fill the form by hand. The geolocation button needs JavaScript.